Location: Ciserano
(45.5833°N, 9.6000°E)
Time: 16:27:43
(UTC+00:00)

FALCON 9 DEB - Pass Details

Date: 17 April 2021
Orbit: 369 x 385 km, 53.0° (Epoch: 10 May)

Event Time Altitude Azimuth Distance (km) Brightness Sun altitude
Exits shadow 01:48:35 23° 13° (NNE) 861 5.2 -24.9°
Drops below altitude 10° 01:51:04 10° 66° (ENE) 1,386 6.5 -24.6°
Sets 01:53:23 0° 82° (E) 2,240 7.5 -24.3°
